Location: ??????
(38.0677°N, 22.9870°E)
Time: 15:03:27
(UTC+00:00)

PAYLOAD A - Pass Details

Date: 23 May 2024
Orbit: 690 x 830 km, 98.5° (Epoch: 12 June)

Event Time Altitude Azimuth Distance (km) Brightness Sun altitude
Rises 02:24:59 0° 9° (N) 3,104 7.9 -8.7°
Reaches altitude 10° 02:27:14 10° 6° (N) 2,196 7.0 -8.3°
Maximum altitude 02:31:59 64° 286° (WNW) 810 4.0 -7.5°
Drops below altitude 10° 02:36:52 10° 206° (SSW) 2,261 5.9 -6.7°
Enters shadow 02:38:42 - 203° (SSW) 2,999 6.6 -6.4°
